User: anonymous   Login
Location: Columbia
(38.9520°N, 92.3340°W)
Time: 22:04:58
(UTC-05:00)
Language:

CZ-2C R/B - Orbit

View from above orbital plane
View from above orbital plane
View from above satellite
View from above satellite

Ground track
Ground track

The orbit data is extracted from the following two-line orbital elements,

1 28480U 04046B   18147.85216656  .00000008  00000-0  18937-4 0  9996
2 28480  98.1764 226.6009 0140739 287.4085 180.6066 14.25673661703347
Epoch (UTC): 27 May 2018 20:27:07
Eccentricity: 0.0140739
inclination: 98.1764°
perigee height: 705 km
apogee height: 907 km
right ascension of ascending node: 226.6009°
argument of perigee: 287.4085°
revolutions per day: 14.25673661
mean anomaly at epoch: 180.6066°
orbit number at epoch: 70334

The dashed part of the orbit path shows where the satellite is in the earth's shadow,  

DLR